TimeCDT,TemperatureF,Dew PointF,Humidity,Sea Level PressureIn,VisibilityMPH,Wind Direction,Wind SpeedMPH,Gust SpeedMPH,PrecipitationIn,Events,Conditions,WindDirDegrees,DateUTC
12:52 AM,7.0,1.0,77,30.51,10.0,NW,6.9,-,N/A,,Clear,310,2013-03-20 05:52:00
1:52 AM,7.0,-0.0,73,30.51,10.0,NW,6.9,-,N/A,,Clear,310,2013-03-20 06:52:00
2:52 AM,3.9,-0.9,80,30.52,10.0,West,6.9,-,N/A,,Clear,280,2013-03-20 07:52:00
3:52 AM,3.9,-0.9,80,30.51,10.0,West,4.6,-,N/A,,Clear,270,2013-03-20 08:52:00
4:52 AM,1.9,-2.9,80,30.49,10.0,Calm,Calm,-,N/A,,Clear,0,2013-03-20 09:52:00
5:52 AM,3.0,-2.0,80,30.49,10.0,Calm,Calm,-,N/A,,Clear,0,2013-03-20 10:52:00
6:52 AM,-0.9,-4.0,87,30.48,10.0,Calm,Calm,-,N/A,,Clear,0,2013-03-20 11:52:00
7:52 AM,-0.9,-6.0,79,30.47,10.0,Calm,Calm,-,N/A,,Clear,0,2013-03-20 12:52:00
8:52 AM,6.1,-0.9,73,30.46,10.0,Calm,Calm,-,N/A,,Clear,0,2013-03-20 13:52:00
9:52 AM,10.0,1.9,70,30.43,10.0,Calm,Calm,-,N/A,,Clear,0,2013-03-20 14:52:00
10:52 AM,12.9,3.9,67,30.43,10.0,East,4.6,-,N/A,,Clear,80,2013-03-20 15:52:00
11:52 AM,17.1,6.1,62,30.40,10.0,East,8.1,-,N/A,,Clear,90,2013-03-20 16:52:00
12:52 PM,19.0,6.1,57,30.38,10.0,ESE,6.9,-,N/A,,Clear,120,2013-03-20 17:52:00
1:52 PM,21.0,8.1,57,30.34,10.0,East,8.1,-,N/A,,Clear,90,2013-03-20 18:52:00
2:52 PM,23.0,8.1,53,30.31,10.0,Variable,5.8,-,N/A,,Clear,0,2013-03-20 19:52:00
3:52 PM,25.0,10.0,53,30.27,10.0,ESE,9.2,-,N/A,,Clear,110,2013-03-20 20:52:00
4:52 PM,25.0,10.9,55,30.25,10.0,East,11.5,18.4,N/A,,Clear,80,2013-03-20 21:52:00
5:52 PM,23.0,10.0,58,30.24,10.0,East,16.1,21.9,N/A,,Clear,80,2013-03-20 22:52:00
6:52 PM,19.9,9.0,62,30.24,10.0,East,13.8,-,N/A,,Clear,90,2013-03-20 23:52:00
7:52 PM,18.0,8.1,65,30.23,10.0,East,15.0,-,N/A,,Clear,90,2013-03-21 00:52:00
8:52 PM,15.8,6.8,68,30.11,10.0,East,11.5,-,N/A,,Clear,90,2013-03-21 01:52:00
9:52 PM,12.9,6.1,74,30.21,10.0,East,11.5,-,N/A,,Clear,90,2013-03-21 02:52:00
10:52 PM,12.0,5.0,73,30.20,10.0,East,15.0,-,N/A,,Clear,90,2013-03-21 03:52:00
11:52 PM,10.0,5.0,80,30.18,10.0,East,13.8,-,N/A,,Clear,100,2013-03-21 04:52:00